Regional Weather Roundup
Issued by NWS

Home | Current Version | Previous Version | Text Only | Print | Product List | Glossary Off
Versions: 1 2 3 4 5 6 7 8 9 10 11 12 13 14 15 16 17 18 19 20 21 22 23 24 25 26 27 28 29 30 31 32 33 34 35 36 37 38 39 40 41 42 43 44 45 46 47 48 49 50

000
ASUS43 KLOT 302108
RWRIL

ILLINOIS REGIONAL WEATHER ROUNDUP
NATIONAL WEATHER SERVICE CHICAGO/ROMEOVILLE IL
400 PM CDT SAT JUL 30 2016

NOTE: "FAIR" INDICATES FEW OR NO CLOUDS BELOW 12,000 FEET WITH NO
SIGNIFICANT WEATHER AND/OR OBSTRUCTIONS TO VISIBILITY.

* THESE STATIONS ARE NOT UNDER NWS QUALITY CONTROL. THEY ALSO MAY NOT
  REPORT WEATHER SUCH AS PRECIPITATION OR FOG.

ILZ001-002-007-009-015-016-024-302200-
NORTHWEST ILLINOIS

CITY           SKY/WX    TMP DP  RH WIND       PRES   REMARKS
MOLINE         CLOUDY    80  66  62 VRB3      29.97S HX  82
STERLING*      MOSUNNY   79  68  69 CALM      29.98S HX  81
SAVANNA*       MOSUNNY   82  66  58 E8        29.97F HX  84
$$

ILZ003-004-008-010-011-017-018-302200-
NORTH CENTRAL ILLINOIS

CITY           SKY/WX    TMP DP  RH WIND       PRES   REMARKS
ROCKFORD       PTSUNNY   80  64  58 E8        29.99F HX  82
FREEPORT*      MOSUNNY   79  65  62 NE10      30.01S HX  80
ROCHELLE*      MOSUNNY   78  67  67 E6        29.99S HX  80
DE KALB*       MOSUNNY   78  66  68 E9        29.99F
$$

ILZ005-006-012>014-019>023-302200-
NORTHEAST ILLINOIS

CITY           SKY/WX    TMP DP  RH WIND       PRES   REMARKS
CHICAGO-OHARE  PTSUNNY   77  64  64 NE10      29.98S
CHICAGO-MIDWAY PTSUNNY   78  65  63 N13       29.97F HX  80
AURORA         MOSUNNY   80  67  64 NE13      29.98S HX  82
LANSING*       PTSUNNY   76  65  68 N12       29.97F
JOLIET*        CLOUDY    80  68  68 NE7       29.97S HX  82
WAUKEGAN       CLOUDY    74  63  68 NE9       30.00S
DUPAGE AIRPORT PTSUNNY   79  65  62 NE10      29.97F HX  81
KANKAKEE*      RAIN      72  70  92 NW6       29.98R
WHEELING       PTSUNNY   74  64  71 NE12      30.01R
MORRIS*        CLOUDY    78  68  70 E5        29.96S HX  80
ROMEOVILLE*    MOSUNNY   79  64  60 NE6       29.97S HX  80
NORTHERLY ISL    N/A     75  65  70 N13         N/A
$$

LMZ740>746-302200-
SOUTHERN LAKE MICHIGAN

STATION/POSITION SKY/WX   TEMP    WIND        PRES    VSBY  WAVE
                          AIR SEA DIR/SP/G                  HT/PER
                          (F)     (DEG/KT/KT) (MB)    (MI)  (FT/S)
SOUTHERN BUOY              71 74   40/ 10/ 12 1015.2F         1/ 4
WILMETTE HARBOR            71 71   50/ 10/ 12   N/A           3/ 5
HARRISON CRIB              72      20/ 11/ 13   N/A
BURNHAM HARBOR             75      10/  9/ 11   N/A
CALUMET HARBOR             73     360/ 10/ 13 1015.0
BURNS HARBOR               71      10/ 11/ 14 1015.6S
MICHIGAN CITY              71     350/ 13/ 13   N/A
MICHIGAN CITY 6N           71 72   10/ 14/ 16   N/A           2/ 5
ST. JOSEPH                 71 72  360/ 14/ 16 1014.7F         2/ 3
$$

ILZ025>027-034>036-040-047-049-050-058-095>099-302200-
WEST-CENTRAL ILLINOIS

CITY           SKY/WX    TMP DP  RH WIND       PRES   REMARKS
QUINCY         PTSUNNY   79  67  66 SW5       29.98F HX  81
GALESBURG*     CLOUDY    78  69  71 W5        29.98S HX  81
MACOMB*        PTSUNNY   79  68  70 W6        30.00F HX  81
JACKSONVILLE*  MOSUNNY   80  66  62 W8        29.97F HX  83
PITTSFIELD*    SUNNY     81  65  57 W5        29.99F HX  83
$$

ILZ028>032-037-038-041>044-048-051>054-059>061-302200-
CENTRAL ILLINOIS

CITY           SKY/WX    TMP DP  RH WIND       PRES   REMARKS
BLOOMINGTON    PTSUNNY   79  68  69 W12       29.96F HX  81
DECATUR        MOSUNNY   83  65  54 W9        29.96F HX  85
PEORIA         CLOUDY    82  69  64 N6        29.96S HX  85
LACON*         PTSUNNY   76  69  78 NE7       29.96S
LINCOLN*       MOSUNNY   82  69  65 NW6       29.96S HX  85
SPRINGFIELD    MOSUNNY   83  67  58 W8        29.96F HX  85
TAYLORVILLE    SUNNY     80  67  63 MISG      29.97S HX  82
$$

ILZ033-039-045-046-055>057-062-063-302200-
EAST-CENTRAL ILLINOIS

CITY           SKY/WX    TMP DP  RH WIND       PRES   REMARKS
CHAMPAIGN      MOSUNNY   81  68  64 W8        29.96F HX  84
MATTOON        MOSUNNY   81  65  58 SW10      29.96F HX  83
PARIS*         MOSUNNY   81  69  66 W5        29.97S HX  84
$$

ILZ079-100>102-302200-
SOUTHWEST ILLINOIS

CITY           SKY/WX    TMP DP  RH WIND       PRES   REMARKS
ALTON          MOSUNNY   81  68  65 NW12      29.98S HX  83
BELLEVILLE     MOSUNNY   85  67  53 VRB7      29.95F HX  88
CAHOKIA*       CLOUDY    87  66  49 N5        29.96S HX  89
SPARTA*        MOSUNNY   84  67  55 NW3       29.97F HX  87
$$

ILZ064>066-069>071-074>076-080>082-084>086-088>090-092>094-302200-
SOUTH-CENTRAL ILLINOIS

CITY           SKY/WX    TMP DP  RH WIND       PRES   REMARKS
CARBONDALE     SUNNY     86  67  52 NW9       29.96F HX  89
CAIRO*         SUNNY     84  73  70 S5        29.96S HX  90
EFFINGHAM*     MOSUNNY   82  71  68 W8        29.98S HX  86
MARION         MOSUNNY   86  68  54 NW12      29.97  HX  89
MT. VERNON     PTSUNNY   84  66  54 N5        29.96F HX  86
CENTRALIA*     MOSUNNY   84  68  57 W6        29.95F HX  87
SALEM*         PTSUNNY   84  67  57 NW7       29.96F HX  86
METROPOLIS*    MOSUNNY   85  72  63 SW6       29.97S HX  91
$$

ILZ067-068-072-073-078-083-087-091-302200-
SOUTHEAST ILLINOIS

CITY           SKY/WX    TMP DP  RH WIND       PRES   REMARKS
LAWRENCEVILLE  PTSUNNY   83  68  60 W6        29.96S HX  86
FLORA*         MOSUNNY   85  66  53 W12       29.96F HX  87
FAIRFIELD*     MOSUNNY   84  69  60 CALM      29.94F HX  87
HARRISBURG*    MOSUNNY   85  71  63 W6        29.96F HX  90
ROBINSON*      SUNNY     82  67  59 NW9       29.96S HX  85
CARMI*         MOSUNNY   82  72  70 NW5       29.95F HX  87
$$

ABBREVIATIONS USED IN REMARKS
   TC - TEMPERATURE IN CELSIUS
  WCI - WIND CHILL INDEX
   HX - HEAT INDEX
  VSB - VISIBILITY
$$





USA.gov is the U.S. government's official web portal to all federal, state and local government web resources and services.